EJU764B LIMC-LIBR

Flight info

Callsign EJU764B
Flight time N/A
Altitude 35000
Route VAKON DCT IBUPU DCT NEVMO DCT LISKO DCT UVOKA L612 DOLON
Aircraft A21N/M-SDE2E3FGHIJ1RWXYZ/LB1

Departure

Time N/A
Airport Milan Malpensa International Airport (LIMC)

Arrival

Time 2026-04-24 19:41
Airport Brindisi Airport (LIBR)
Time Latitude Longitude Altitude Speed Heading
2026-04-24 18:54 43.51059 14.21239 35081 ft 433 kts 133°
2026-04-24 18:55 43.44484 14.29742 35083 ft 432 kts 133°
2026-04-24 18:56 43.40119 14.35421 35085 ft 432 kts 133°
2026-04-24 18:56 43.35752 14.41103 35083 ft 432 kts 133°
2026-04-24 18:57 43.31383 14.46763 35081 ft 432 kts 133°
2026-04-24 18:57 43.27011 14.52418 35083 ft 431 kts 133°
2026-04-24 18:58 43.22638 14.58053 35082 ft 431 kts 133°
2026-04-24 18:58 43.18268 14.63686 35086 ft 431 kts 133°
2026-04-24 18:59 43.13897 14.69308 35082 ft 432 kts 133°
2026-04-24 18:59 43.09522 14.74924 35082 ft 431 kts 133°
2026-04-24 19:00 43.05147 14.80528 35086 ft 430 kts 133°
2026-04-24 19:00 43.00773 14.86106 35089 ft 430 kts 133°
2026-04-24 19:01 42.96429 14.91647 35088 ft 430 kts 133°
2026-04-24 19:01 42.92055 14.97208 35092 ft 430 kts 134°
2026-04-24 19:02 42.88374 15.01864 35086 ft 431 kts 134°
2026-04-24 19:02 42.83270 15.08318 35084 ft 431 kts 134°
2026-04-24 19:03 42.78886 15.13874 35086 ft 431 kts 134°
2026-04-24 19:03 42.74494 15.19412 35087 ft 431 kts 134°
2026-04-24 19:04 42.70094 15.24944 35088 ft 431 kts 134°
2026-04-24 19:04 42.65694 15.30468 35089 ft 431 kts 134°
2026-04-24 19:05 42.61289 15.35997 35091 ft 431 kts 134°
2026-04-24 19:05 42.56880 15.41522 35103 ft 432 kts 134°
2026-04-24 19:06 42.52467 15.47042 35093 ft 432 kts 134°
2026-04-24 19:06 42.48043 15.52555 35096 ft 432 kts 134°
2026-04-24 19:07 42.43624 15.58062 35095 ft 432 kts 134°
2026-04-24 19:07 42.39943 15.62632 35096 ft 432 kts 134°
2026-04-24 19:08 42.34794 15.69011 35097 ft 432 kts 134°
2026-04-24 19:08 42.30353 15.74490 35089 ft 433 kts 134°
2026-04-24 19:09 42.25917 15.79966 35103 ft 432 kts 134°
2026-04-24 19:09 42.21476 15.85441 35091 ft 432 kts 134°
2026-04-24 19:10 42.17028 15.90906 35092 ft 433 kts 134°
2026-04-24 19:10 42.12578 15.96361 35098 ft 433 kts 134°
2026-04-24 19:11 42.08127 16.01815 35102 ft 432 kts 134°
2026-04-24 19:11 42.03677 16.07250 35095 ft 432 kts 134°
2026-04-24 19:12 41.99224 16.12679 35096 ft 432 kts 135°
2026-04-24 19:12 41.94763 16.18106 35095 ft 432 kts 135°
2026-04-24 19:13 41.91054 16.22610 35083 ft 432 kts 135°
2026-04-24 19:13 41.85838 16.28937 35084 ft 431 kts 135°
2026-04-24 19:14 41.81433 16.34264 34945 ft 419 kts 135°
2026-04-24 19:14 41.79278 16.36869 34505 ft 415 kts 135°
2026-04-24 19:14 41.77146 16.39447 33980 ft 411 kts 135°
2026-04-24 19:14 41.75030 16.42000 33408 ft 407 kts 135°
2026-04-24 19:15 41.72937 16.44523 32894 ft 402 kts 134°
2026-04-24 19:15 41.70871 16.47013 32404 ft 397 kts 134°
2026-04-24 19:15 41.68824 16.49476 31909 ft 395 kts 134°
2026-04-24 19:15 41.66790 16.51926 31439 ft 392 kts 134°
2026-04-24 19:16 41.62759 16.56773 30532 ft 388 kts 134°
2026-04-24 19:16 41.60756 16.59171 30094 ft 385 kts 134°
2026-04-24 19:16 41.58794 16.61518 29591 ft 383 kts 134°
2026-04-24 19:17 41.56817 16.63882 29083 ft 380 kts 134°
2026-04-24 19:17 41.54855 16.66233 28614 ft 378 kts 134°
2026-04-24 19:17 41.52904 16.68563 28165 ft 374 kts 134°
2026-04-24 19:17 41.50971 16.70870 27741 ft 371 kts 134°
2026-04-24 19:18 41.49050 16.73158 27296 ft 369 kts 134°
2026-04-24 19:18 41.47143 16.75431 26853 ft 367 kts 133°
2026-04-24 19:18 41.45245 16.77694 26402 ft 365 kts 134°
2026-04-24 19:18 41.43360 16.79938 25969 ft 363 kts 134°
2026-04-24 19:19 41.41453 16.82201 25546 ft 361 kts 134°
2026-04-24 19:19 41.39578 16.84426 25128 ft 359 kts 133°
2026-04-24 19:19 41.37777 16.86648 24701 ft 356 kts 129°
2026-04-24 19:19 41.36124 16.89081 24250 ft 354 kts 127°
2026-04-24 19:20 41.34505 16.91545 23820 ft 353 kts 126°
2026-04-24 19:20 41.32891 16.94006 23343 ft 352 kts 126°
2026-04-24 19:20 41.31277 16.96449 22892 ft 351 kts 127°
2026-04-24 19:20 41.29669 16.98879 22438 ft 349 kts 127°
2026-04-24 19:21 41.28067 17.01295 21986 ft 348 kts 127°
2026-04-24 19:21 41.26472 17.03700 21540 ft 346 kts 127°
2026-04-24 19:21 41.24888 17.06088 21128 ft 344 kts 127°
2026-04-24 19:21 41.23304 17.08468 20705 ft 343 kts 127°
2026-04-24 19:22 41.22237 17.10072 20416 ft 342 kts 127°
2026-04-24 19:22 41.20153 17.13197 19894 ft 340 kts 127°
2026-04-24 19:22 41.18587 17.15548 19502 ft 339 kts 127°
2026-04-24 19:22 41.17027 17.17888 19103 ft 339 kts 128°
2026-04-24 19:23 41.15457 17.20226 18728 ft 339 kts 128°
2026-04-24 19:23 41.13881 17.22566 18349 ft 340 kts 128°
2026-04-24 19:23 41.12302 17.24905 17937 ft 340 kts 128°
2026-04-24 19:23 41.10724 17.27243 17542 ft 340 kts 128°
2026-04-24 19:24 41.09149 17.29577 17156 ft 340 kts 128°
2026-04-24 19:24 41.07573 17.31916 16777 ft 340 kts 129°
2026-04-24 19:24 41.06526 17.33464 16522 ft 340 kts 129°
2026-04-24 19:24 41.04949 17.35796 16154 ft 339 kts 129°
2026-04-24 19:25 41.03379 17.38118 15811 ft 338 kts 129°
2026-04-24 19:25 41.01812 17.40432 15480 ft 337 kts 129°
2026-04-24 19:25 41.00250 17.42741 15139 ft 337 kts 129°
2026-04-24 19:25 40.98691 17.45040 14780 ft 333 kts 129°
2026-04-24 19:26 40.97157 17.47302 14402 ft 328 kts 129°
2026-04-24 19:26 40.95640 17.49535 14061 ft 324 kts 129°
2026-04-24 19:26 40.94141 17.51739 13714 ft 320 kts 129°
2026-04-24 19:26 40.92665 17.53909 13349 ft 315 kts 129°
2026-04-24 19:27 40.91212 17.56045 13025 ft 310 kts 129°
2026-04-24 19:27 40.89778 17.58150 12700 ft 307 kts 129°
2026-04-24 19:27 40.88355 17.60249 12386 ft 306 kts 128°
2026-04-24 19:27 40.86977 17.62385 12050 ft 305 kts 127°
2026-04-24 19:28 40.85614 17.64529 11726 ft 305 kts 127°
2026-04-24 19:28 40.84248 17.66671 11420 ft 304 kts 127°
2026-04-24 19:28 40.82883 17.68797 11110 ft 304 kts 127°
2026-04-24 19:28 40.81517 17.70921 10807 ft 303 kts 127°
2026-04-24 19:29 40.78787 17.75159 10198 ft 301 kts 127°
2026-04-24 19:29 40.77445 17.77235 9971 ft 294 kts 128°
2026-04-24 19:29 40.76128 17.79276 9633 ft 290 kts 127°
2026-04-24 19:30 40.74826 17.81296 9273 ft 290 kts 128°
2026-04-24 19:30 40.73518 17.83322 8944 ft 290 kts 127°
2026-04-24 19:30 40.72214 17.85340 8619 ft 287 kts 127°
2026-04-24 19:30 40.70929 17.87326 8307 ft 283 kts 127°
2026-04-24 19:31 40.69677 17.89262 8008 ft 281 kts 127°
2026-04-24 19:31 40.68413 17.91214 7727 ft 279 kts 127°
2026-04-24 19:31 40.67153 17.93156 7421 ft 279 kts 127°
2026-04-24 19:31 40.65934 17.95132 7116 ft 277 kts 120°
2026-04-24 19:32 40.65062 17.97349 6810 ft 270 kts 110°
2026-04-24 19:32 40.64332 17.99613 6512 ft 268 kts 109°
2026-04-24 19:32 40.63613 18.01861 6199 ft 266 kts 110°
2026-04-24 19:32 40.62885 18.04106 5904 ft 267 kts 110°
2026-04-24 19:33 40.62155 18.06343 5585 ft 266 kts 110°
2026-04-24 19:33 40.61424 18.08576 5302 ft 264 kts 110°
2026-04-24 19:33 40.60706 18.10757 5129 ft 255 kts 110°
2026-04-24 19:33 40.60017 18.12843 5061 ft 241 kts 110°
2026-04-24 19:34 40.59188 18.14724 5113 ft 240 kts 127°
2026-04-24 19:34 40.57995 18.16280 5088 ft 242 kts 135°
2026-04-24 19:34 40.56742 18.17755 5022 ft 241 kts 136°
2026-04-24 19:34 40.55290 18.18859 5027 ft 246 kts 165°
2026-04-24 19:35 40.53581 18.18792 4841 ft 251 kts 199°
2026-04-24 19:35 40.52158 18.17503 4475 ft 252 kts 229°
2026-04-24 19:35 40.51121 18.15619 3915 ft 258 kts 243°
2026-04-24 19:35 40.50642 18.13368 3352 ft 257 kts 277°
2026-04-24 19:36 40.51189 18.11248 3065 ft 238 kts 311°
2026-04-24 19:36 40.52420 18.09926 2843 ft 225 kts 331°
2026-04-24 19:36 40.53724 18.08816 2570 ft 220 kts 328°
2026-04-24 19:36 40.54917 18.07664 2523 ft 206 kts 326°
2026-04-24 19:37 40.55993 18.06530 2496 ft 193 kts 323°
2026-04-24 19:37 40.56959 18.05439 2491 ft 169 kts 322°
2026-04-24 19:37 40.57789 18.04467 2266 ft 148 kts 322°
2026-04-24 19:37 40.58512 18.03599 1959 ft 132 kts 322°
2026-04-24 19:38 40.59168 18.02798 1840 ft 128 kts 322°
2026-04-24 19:38 40.59818 18.02001 1677 ft 127 kts 322°
2026-04-24 19:38 40.60455 18.01220 1465 ft 127 kts 322°
2026-04-24 19:38 40.61112 18.00424 1287 ft 127 kts 321°
2026-04-24 19:39 40.61765 17.99643 1135 ft 129 kts 322°
2026-04-24 19:39 40.62419 17.98830 983 ft 129 kts 320°
2026-04-24 19:39 40.63081 17.98036 839 ft 128 kts 319°
2026-04-24 19:39 40.63741 17.97246 624 ft 129 kts 317°
2026-04-24 19:40 40.64390 17.96436 446 ft 128 kts 318°
2026-04-24 19:40 40.65042 17.95638 273 ft 127 kts 320°
2026-04-24 19:40 40.65697 17.94861 85 ft 127 kts 319°
2026-04-24 19:40 40.66316 17.94104 47 ft 109 kts 319°
2026-04-24 19:41 40.66717 17.93612 44 ft 54 kts 317°
2026-04-24 19:41 40.66979 17.93298 46 ft 50 kts 317°
2026-04-24 19:41 40.67167 17.93062 47 ft 21 kts 318°
2026-04-24 19:41 40.67239 17.92996 47 ft 11 kts 347°
2026-04-24 19:42 40.67317 17.93032 47 ft 14 kts 45°
2026-04-24 19:42 40.67331 17.93058 49 ft 0 kts 62°
2026-04-24 19:42 40.67339 17.93079 47 ft 8 kts 71°
2026-04-24 19:43 40.67317 17.93178 47 ft 14 kts 135°
2026-04-24 19:43 40.67234 17.93279 49 ft 18 kts 136°
2026-04-24 19:43 40.67143 17.93392 49 ft 17 kts 137°
2026-04-24 19:43 40.67046 17.93511 49 ft 21 kts 137°
2026-04-24 19:44 40.66930 17.93654 49 ft 25 kts 135°
2026-04-24 19:44 40.66798 17.93816 49 ft 27 kts 137°
2026-04-24 19:44 40.66660 17.93985 49 ft 28 kts 137°
2026-04-24 19:44 40.66528 17.94145 49 ft 25 kts 137°
2026-04-24 19:45 40.66396 17.94305 49 ft 26 kts 137°
2026-04-24 19:45 40.66257 17.94472 49 ft 28 kts 137°
2026-04-24 19:45 40.66127 17.94633 48 ft 21 kts 136°
2026-04-24 19:45 40.66040 17.94702 49 ft 14 kts 191°
2026-04-24 19:46 40.65970 17.94605 42 ft 16 kts 232°
2026-04-24 19:46 40.65897 17.94478 46 ft 19 kts 232°
2026-04-24 19:46 40.65820 17.94351 49 ft 19 kts 232°
2026-04-24 19:46 40.65748 17.94226 47 ft 17 kts 232°
2026-04-24 19:47 40.65728 17.94134 47 ft 11 kts 301°
2026-04-24 19:47 40.65743 17.94113 49 ft 0 kts 326°
2026-04-24 19:47 40.65751 17.94104 49 ft 3 kts 322°
2026-04-24 19:48 40.65772 17.94083 49 ft 5 kts 323°
2026-04-24 19:48 40.65783 17.94072 49 ft 0 kts 322°